FW8184 Weather Reports


Display with metric or nautical units.
time (UTC)temp
F
wind
direction
speed
MPH
gust
MPH
rain 1hr
in
rain 24hr
in
rain mn
in
humidity
%
barometer
mb
20260906133105 72 58 1.0 4.0 0.00 0.00 0.00 84 1018.1
20260906132518 72 0 0.0 4.0 0.00 0.00 0.00 84 1018.0
20260906132020 72 0 0.0 2.0 0.00 0.00 0.00 84 1018.0
20260906131535 72 0 0.0 2.0 0.00 0.00 0.00 84 1018.0
20260906131019 72 0 0.0 2.0 0.00 0.00 0.00 84 1017.9
20260906130518 72 306 0.0 3.0 0.00 0.00 0.00 84 1018.0
20260906130039 72 72 1.0 3.0 0.00 0.00 0.00 84 1017.8
20260906125519 72 24 1.0 3.0 0.00 0.00 0.00 84 1017.7
20260906125018 71 0 1.0 2.0 0.00 0.00 0.00 85 1017.6
20260906124537 71 144 0.0 4.0 0.00 0.00 0.00 85 1017.5
20260906123039 71 329 1.0 4.0 0.00 0.00 0.00 85 1017.5
20260906122018 71 338 0.0 1.0 0.00 0.00 0.00 85 1017.4
20260906121542 71 0 0.0 1.0 0.00 0.00 0.00 85 1017.5
20260906120522 71 0 0.0 1.0 0.00 0.00 0.00 85 1017.5
20260906120040 71 0 0.0 1.0 0.00 0.00 0.00 85 1017.2
20260906114546 71 0 0.0 1.0 0.00 0.00 0.00 84 1016.7
20260906113039 71 0 0.0 2.0 0.00 0.00 0.00 85 1016.9
20260906112018 71 0 0.0 1.0 0.00 0.00 0.00 85 1016.8
20260906111548 71 21 0.0 1.0 0.00 0.00 0.00 85 1016.6
20260906111017 71 22 0.0 1.0 0.00 0.00 0.00 84 1016.6
20260906110520 71 0 0.0 1.0 0.00 0.00 0.00 84 1016.6
20260906110039 71 0 0.0 1.0 0.00 0.00 0.00 84 1016.7
20260906104541 71 0 0.0 1.0 0.00 0.00 0.00 84 1016.6
20260906103039 71 0 0.0 1.0 0.00 0.00 0.00 84 1016.3
20260906102521 71 0 0.0 1.0 0.00 0.00 0.00 84 1016.3
20260906101538 71 44 0.0 1.0 0.00 0.00 0.00 84 1016.5
20260906101019 71 45 0.0 1.0 0.00 0.00 0.00 84 1016.3
20260906100517 71 0 0.0 1.0 0.00 0.00 0.00 84 1016.3
20260906100040 71 0 0.0 2.0 0.00 0.00 0.00 84 1016.0
20260906094541 71 75 1.0 5.0 0.00 0.00 0.00 84 1016.0
20260906093040 71 154 0.0 4.0 0.00 0.00 0.00 84 1016.0
20260906092517 71 41 1.0 4.0 0.00 0.00 0.00 84 1016.0
20260906092019 71 23 1.0 4.0 0.00 0.00 0.00 84 1016.0
20260906091544 72 36 0.0 4.0 0.00 0.00 0.00 84 1015.9
20260906090040 72 70 1.0 2.0 0.00 0.00 0.00 83 1016.0
20260906085021 72 77 0.0 2.0 0.00 0.00 0.00 83 1015.7
20260906084539 72 91 1.0 4.0 0.00 0.00 0.00 83 1015.8
20260906084022 72 108 1.0 4.0 0.00 0.00 0.00 83 1015.9
20260906083517 72 88 0.0 5.0 0.00 0.00 0.00 83 1016.0
20260906083042 72 0 1.0 5.0 0.00 0.00 0.00 83 1015.9
20260906081540 72 42 1.0 4.0 0.00 0.00 0.00 83 1016.0
20260906080040 73 0 0.0 5.0 0.00 0.00 0.00 82 1015.8
20260906075520 73 140 0.0 5.0 0.00 0.00 0.00 82 1015.8
20260906075020 73 244 1.0 5.0 0.00 0.00 0.00 82 1015.7
20260906074539 73 44 0.0 5.0 0.00 0.00 0.00 82 1015.9
20260906074020 73 34 0.0 4.0 0.00 0.00 0.00 82 1015.8
20260906073520 73 94 1.0 5.0 0.00 0.00 0.00 82 1015.8
20260906073037 73 63 1.0 5.0 0.00 0.00 0.00 82 1015.9
20260906071540 74 351 1.0 3.0 0.00 0.00 0.00 82 1016.0
20260906070040 74 81 0.0 5.0 0.00 0.00 0.00 82 1016.1
20260906065522 74 69 1.0 5.0 0.00 0.00 0.00 82 1016.2
20260906065019 74 0 0.0 2.0 0.00 0.00 0.00 83 1016.2
20260906064536 74 40 0.0 2.0 0.00 0.00 0.00 83 1016.3
20260906064021 74 0 0.0 1.0 0.00 0.00 0.00 83 1016.3
20260906061539 74 34 0.0 1.0 0.00 0.00 0.00 82 1016.3
20260906061019 75 36 0.0 1.0 0.00 0.00 0.00 82 1016.1
20260906060520 75 25 0.0 1.0 0.00 0.00 0.00 81 1016.0
20260906060035 75 0 0.0 1.0 0.00 0.00 0.00 81 1015.9
20260906055517 75 0 0.0 0.0 0.00 0.00 0.00 81 1016.0
20260906055018 75 0 0.0 1.0 0.00 0.00 0.00 81 1016.0
20260906054552 75 0 0.0 2.0 0.00 0.00 0.00 81 1015.9
20260906053039 76 86 1.0 3.0 0.00 0.00 0.00 81 1015.6
20260906051559 76 281 0.0 2.0 0.00 0.00 0.00 81 1015.6
20260906051020 76 0 0.0 4.0 0.00 0.00 0.00 81 1015.5
20260906050517 77 0 0.0 4.0 0.00 0.00 0.00 81 1015.2
20260906050044 77 160 0.0 2.0 0.00 0.00 0.00 81 1015.1
20260906045520 77 169 0.0 3.0 0.00 0.00 0.00 81 1015.1
20260906045017 77 167 0.0 4.0 0.00 0.00 0.00 80 1015.1
20260906044549 77 345 0.0 4.0 0.00 0.00 0.00 80 1015.0
20260906043040 78 101 0.0 2.0 0.00 0.00 0.00 81 1014.9
20260906042518 78 49 0.0 2.0 0.00 0.00 0.00 81 1014.9
20260906042017 78 262 0.0 2.0 0.00 0.00 0.00 80 1014.8
20260906041539 78 18 0.0 2.0 0.00 0.00 0.00 80 1014.8
20260906041023 78 0 0.0 2.0 0.00 0.00 0.00 79 1014.7
20260906040516 79 0 0.0 6.0 0.00 0.00 0.00 79 1014.8
20260906040114 79 23 1.0 6.0 0.00 0.00 0.00 79 1014.6
20260906034536 80 48 0.0 4.0 0.00 0.00 0.00 78 1014.6
20260906034018 80 122 1.0 3.0 0.00 0.00 0.00 77 1014.6
20260906033519 80 10 1.0 3.0 0.00 0.00 0.00 76 1014.5
20260906033046 80 55 1.0 6.0 0.00 0.00 0.00 76 1014.5
20260906032520 81 37 1.0 6.0 0.00 0.00 0.00 75 1014.4
20260906032020 81 60 1.0 7.0 0.00 0.00 0.00 75 1014.4
20260906031537 81 359 1.0 7.0 0.00 0.00 0.00 75 1014.3
20260906031017 81 74 2.0 7.0 0.00 0.00 0.00 74 1014.3
20260906030034 82 72 1.0 5.0 0.00 0.00 0.00 74 1014.2
20260906025637 82 103 1.0 5.0 0.00 0.00 0.00 73 1014.1
20260906025024 82 125 1.0 5.0 0.00 0.00 0.00 73 1014.1
20260906024542 82 16 1.0 8.0 0.00 0.00 0.00 73 1014.1
20260906023044 83 46 2.0 11.0 0.00 0.00 0.00 74 1014.1
20260906021540 81 111 2.0 4.0 0.00 0.00 0.00 81 1014.0
20260906021017 81 80 0.0 1.0 0.00 0.00 0.00 81 1013.9
20260906020041 81 0 0.0 0.0 0.00 0.00 0.00 80 1013.5
20260906014539 82 0 0.0 0.0 0.00 0.00 0.00 79 1013.2
20260906013520 82 0 0.0 0.0 0.00 0.00 0.00 79 1013.0
20260906013040 83 0 0.0 0.0 0.00 0.00 0.00 78 1012.9
20260906011541 83 0 0.0 1.0 0.00 0.00 0.00 77 1012.9
20260906010518 84 15 0.0 1.0 0.00 0.00 0.00 76 1012.9
20260906010039 84 0 0.0 1.0 0.00 0.00 0.00 74 1012.8
20260906005518 85 0 0.0 1.0 0.00 0.00 0.00 74 1012.8
20260906005017 85 0 0.0 0.0 0.00 0.00 0.00 74 1012.7
20260906004536 85 0 0.0 1.0 0.00 0.00 0.00 73 1012.5
20260906003041 86 0 0.0 2.0 0.00 0.00 0.00 72 1012.6
20260906002019 87 0 0.0 1.0 0.00 0.00 0.00 71 1012.5
20260906001545 87 108 0.0 1.0 0.00 0.00 0.00 70 1012.4
20260906000036 88 0 0.0 1.0 0.00 0.00 0.00 68 1012.5
20260905234539 90 0 0.0 4.0 0.00 0.00 0.00 66 1012.4
20260905233036 90 344 0.0 3.0 0.00 0.00 0.00 64 1012.7
20260905232522 91 15 0.0 3.0 0.00 0.00 0.00 62 1012.6
20260905231552 91 68 1.0 4.0 0.00 0.00 0.00 61 1012.5
20260905231018 92 47 1.0 4.0 0.00 0.00 0.00 61 1012.3
20260905230517 92 80 0.0 2.0 0.00 0.00 0.00 61 1012.5
20260905230039 92 58 1.0 4.0 0.00 0.00 0.00 61 1012.5
20260905224607 93 87 2.0 6.0 0.00 0.00 0.00 59 1012.6
20260905224020 93 300 1.0 6.0 0.00 0.00 0.00 58 1012.6
20260905223518 93 243 1.0 4.0 0.00 0.00 0.00 59 1012.4
20260905223042 93 330 1.0 4.0 0.00 0.00 0.00 58 1012.4
20260905222517 94 203 1.0 3.0 0.00 0.00 0.00 58 1012.4
20260905222016 94 49 0.0 4.0 0.00 0.00 0.00 57 1012.3
20260905221019 95 65 2.0 5.0 0.00 0.00 0.00 55 1012.4
20260905220519 95 18 1.0 5.0 0.00 0.00 0.00 58 1012.3
20260905220038 94 86 1.0 5.0 0.00 0.00 0.00 57 1012.3
20260905215517 94 105 0.0 5.0 0.00 0.00 0.00 57 1012.5
20260905214547 94 27 2.0 6.0 0.00 0.00 0.00 58 1012.4
20260905213518 95 18 2.0 7.0 0.00 0.00 0.00 56 1012.4
20260905213036 94 51 3.0 7.0 0.00 0.00 0.00 57 1012.4
20260905212526 94 239 3.0 5.0 0.00 0.00 0.00 57 1012.4
20260905212018 95 25 2.0 5.0 0.00 0.00 0.00 57 1012.5
20260905211546 95 23 1.0 4.0 0.00 0.00 0.00 56 1012.3
20260905211018 95 93 1.0 4.0 0.00 0.00 0.00 55 1012.4
20260905210520 96 74 2.0 5.0 0.00 0.00 0.00 52 1012.5
20260905210048 97 75 1.0 5.0 0.00 0.00 0.00 51 1012.3
20260905205519 96 281 1.0 3.0 0.00 0.00 0.00 50 1012.6
20260905205019 96 46 1.0 3.0 0.00 0.00 0.00 52 1012.4
20260905204540 96 70 1.0 3.0 0.00 0.00 0.00 53 1012.5
20260905203039 96 56 1.0 9.0 0.00 0.00 0.00 50 1012.9
20260905202526 96 83 2.0 9.0 0.00 0.00 0.00 49 1012.9
20260905202020 96 32 2.0 4.0 0.00 0.00 0.00 49 1012.9
20260905201536 97 24 2.0 7.0 0.00 0.00 0.00 48 1013.0
20260905200041 97 81 2.0 6.0 0.00 0.00 0.00 48 1013.1
20260905194547 96 89 2.0 6.0 0.00 0.00 0.00 49 1013.0
20260905193040 96 65 2.0 6.0 0.00 0.00 0.00 49 1013.1
20260905191538 98 94 3.0 5.0 0.00 0.00 0.00 46 1013.3
20260905190043 98 53 1.0 7.0 0.00 0.00 0.00 48 1013.1
20260905184553 97 63 2.0 6.0 0.00 0.00 0.00 47 1013.3
20260905183040 97 75 2.0 5.0 0.00 0.00 0.00 48 1013.6
20260905181542 97 285 2.0 6.0 0.00 0.00 0.00 48 1013.7
20260905180047 96 256 2.0 4.0 0.00 0.00 0.00 49 1013.9
20260905175519 96 283 2.0 4.0 0.00 0.00 0.00 49 1013.9
20260905175020 96 97 1.0 3.0 0.00 0.00 0.00 51 1013.9
20260905174540 96 333 1.0 5.0 0.00 0.00 0.00 48 1014.0
20260905173101 96 39 1.0 4.0 0.00 0.00 0.00 52 1014.1
20260905171540 96 97 1.0 3.0 0.00 0.00 0.00 52 1014.2
20260905170035 95 359 1.0 3.0 0.00 0.00 0.00 54 1014.3
20260905165018 94 334 1.0 2.0 0.00 0.00 0.00 57 1014.3
20260905164541 94 80 1.0 3.0 0.00 0.00 0.00 57 1014.3
20260905163039 92 269 1.0 3.0 0.00 0.00 0.00 57 1014.4
20260905161601 92 46 1.0 3.0 0.00 0.00 0.00 60 1014.4
20260905161019 92 46 0.0 1.0 0.00 0.00 0.00 59 1014.4
20260905160517 92 0 0.0 1.0 0.00 0.00 0.00 58 1014.5
20260905160044 92 0 0.0 2.0 0.00 0.00 0.00 61 1014.5
20260905154538 91 314 1.0 2.0 0.00 0.00 0.00 59 1014.4
20260905153039 91 309 0.0 1.0 0.00 0.00 0.00 59 1014.4
20260905152522 91 108 1.0 2.0 0.00 0.00 0.00 63 1014.4
20260905152018 90 74 0.0 2.0 0.00 0.00 0.00 64 1014.4
20260905151542 90 91 0.0 2.0 0.00 0.00 0.00 63 1014.3
20260905150040 91 126 1.0 2.0 0.00 0.00 0.00 58 1014.3
20260905144542 90 289 0.0 1.0 0.00 0.00 0.00 61 1014.1
20260905143037 87 0 0.0 1.0 0.00 0.00 0.00 67 1014.0
20260905141541 85 0 0.0 1.0 0.00 0.00 0.00 72 1014.1
20260905140041 85 0 0.0 1.0 0.00 0.00 0.00 72 1014.0
20260905135520 85 0 0.0 1.0 0.00 0.00 0.00 72 1014.1
20260905135020 84 0 0.0 1.0 0.00 0.00 0.00 72 1014.2
20260905134538 83 0 0.0 0.0 0.00 0.00 0.00 74 1014.2